Weather in Roslyatino

Russia / Vologda Oblast     59°45′56″N   44°13′31″E
temp.,
°C
wind,
m/s
gust,
m/s
humid.,
%
clouds,
%
prec.,
mm/h
press.,
hPa
HPBL,
m
13 april, tue
tue1300:00+5sse31298100 0.0 1034302
03:00+3sse41397100 0.0 1033353
06:00+4sse41399100 0.0 1031422
09:00+5s41199100 0.0 1030415
12:00+8s41198100 0.0 1028419
15:00+11s41289100 0.0 1026511
18:00+11s41291100 0.0 1025434
21:00+8s41493100 0.0 1025357
14 april, wed
wed1400:00+7s31293100 0.0 1025263
03:00+5s3119194 0.0 1024214
06:00+5s3118772 0.0 1023210
09:00+11ssw412725 0.0 1022390
12:00+16ssw5125950 0.0 1021800
15:00+16ssw51158100 0.0 1020854
18:00+13ssw41267100 0.0 1019504
21:00+9ssw41481100 0.0 1020359
15 april, thu
thu1500:00+8ssw31385100 0.0 1019293
03:00+6wsw229291 0.0 101917
06:00+6nne4893100 0.0 1020379
09:00+5nne4891100 0.2 1022538
12:00+3nne41096100 0.9 1024395
15:00+5ne2688100 1.3 1025509
18:00+6nne4870100 0.0 1025576
21:00+2nne31075100 0.0 1027320
16 april, fri
fri1600:00+1nne3117887 0.0 1028336
03:00−1ne310828 0.0 1029277
06:00−1ne39773 0.0 1030312
09:00+4ene35505 0.0 1030730
12:00+7ne344171 0.0 10301126
15:00+9ne343969 0.0 10301357
18:00+7ne24515 0.0 1030152
21:00+2ne22676 0.0 103132
17 april, sat
sat1700:00+1ne117050 0.0 103110
03:000n11743 0.0 103210
06:00+1nnw23758 0.0 1032103
09:00+6nnw24575 0.0 1032752
12:00+9nnw464840 0.0 10311541
15:00+10nnw574274 0.0 10291999
18:00+9nnw485258 0.0 10291118
21:00+4n310696 0.0 1031433